sat.trackr.live / text

‹ back to catalog

STARLINK-34718

NORAD 64911 · 2025-157H

PAYLOAD ACTIVE UNKNOWN

§ Identity

Operator
Country
US
Launch date
2025-07-26
Launch site
AFETR
Launch vehicle
Mass (kg)
RCS (m²)

Purposes: comms

External: N2YO · Heavens-Above · Gunter

§ Orbital elements

Epoch: 2026-09-20T23:21:30.417408Z

Period
93.85 min
Inclination
53.1575°
Eccentricity
0.0001185
Mean motion
15.34403571 rev/d
Perigee alt
461.9 km
Apogee alt
463.5 km
Semi-major
6,840.8 km
B*
6.9924e-4
RAAN
155.6879°
Arg perigee
83.0754°
Mean anomaly
277.0383°
Rev number
6,606

§ Raw data

STARLINK-347181 64911U 25157H   26263.97326872  .00023325  00000+0  69924-3 0  99912 64911  53.1575 155.6879 0001185  83.0754 277.0383 15.34403571 66063

JSON: /api/v1/satellites/64911 · /tle

For live sub-satellite position, see the globe view (requires WebGL).

§ Visibility from observer

Set your observer location to see the next 7 days of passes ≥ 10°. The values pass through the URL so the page stays shareable.

No JS? Fill the form by hand. The geolocation button needs JavaScript.